This demonstration page uses our WeatherBlox Daily Observations layout. Learn more.

Left ArrowRight Arrow

Hourly Observations for April 1, 2015

Temp ( °F °C ) Dew Point ( °F °C ) Humidity (%) Winds ( mph kmh ) Pressure ( in mb ) Visibility ( mi km ) Precip ( " mm )
12:51 am 00:51 Clear 65 18.3 32 undefined 29 29 N 7 11 29.81 1009 10 16 N/A
1:51 am 01:51 Clear 68 20 37 2.8 32 32 N 12 19 29.79 1009 10 16 N/A
2:51 am 02:51 Clear 65 18.3 38 3.3 37 37 SSW 3 6 29.79 1009 10 16 N/A
3:51 am 03:51 Clear 60 15.6 39 3.9 46 46 SSE 5 7 29.80 1009 10 16 N/A
4:51 am 04:51 Clear 57 13.9 39 3.9 51 51 E 5 7 29.81 1009 10 16 N/A
5:51 am 05:51 Clear 53 11.7 37 2.8 55 55 N N/A 29.83 1010 10 16 N/A
6:51 am 06:51 Sunny 55 12.8 38 3.3 53 53 E 3 6 29.86 1011 10 16 N/A
8:51 am 08:51 Sunny 69 20.6 40 4.4 35 35 VRB 5 7 29.87 1012 10 16 N/A
9:51 am 09:51 Sunny 73 22.8 40 4.4 30 30 VRB 3 6 29.87 1011 10 16 N/A
10:51 am 10:51 Sunny 77 25 40 4.4 26 26 S 6 9 29.85 1011 10 16 N/A
11:51 am 11:51 Sunny 80 26.7 39 3.9 23 23 VRB 6 9 29.82 1010 10 16 N/A
12:51 pm 12:51 Sunny 81 27.2 36 2.2 20 20 SE 9 15 29.78 1008 10 16 N/A
1:51 pm 13:51 Mostly Sunny 85 29.4 36 2.2 17 17 NW 8 13 29.72 1007 10 16 N/A
2:51 pm 14:51 Mostly Sunny 83 28.3 33 0.6 17 17 S 7 11 29.71 1006 10 16 N/A
3:51 pm 15:51 Sunny 84 28.9 30 -1.1 14 14 WNW 18 30 29.70 1006 10 16 N/A
4:51 pm 16:51 Mostly Sunny 84 28.9 31 -0.6 15 15 W 13 20 29.70 1006 10 16 N/A
5:51 pm 17:51 Sunny 82 27.8 19 -7.2 9 9 WNW 23 37 29.70 1006 10 16 N/A
6:51 pm 18:51 Clear 77 25 22 -5.6 13 13 WNW 15 24 29.72 1007 10 16 N/A
7:51 pm 19:51 Clear 72 22.2 22 -5.6 15 15 NW 10 17 29.74 1007 10 16 N/A
8:51 pm 20:51 Clear 66 18.9 23 -5 19 19 WNW 10 17 29.77 1008 10 16 N/A
9:51 pm 21:51 Clear 65 18.3 23 -5 20 20 NNW 12 19 29.78 1008 10 16 N/A
10:51 pm 22:51 Clear 62 16.7 24 -4.4 23 23 NW 9 15 29.79 1009 10 16 N/A
11:51 pm 23:51 Clear 64 17.8 24 -4.4 22 22 NNW 10 17 29.78 1009 10 16 N/A

Powered by AerisWeather